This is the latest recevied weather packets stored in our database for station/object EA7HQL-10. If no packets are shown the sender has not sent any weather packets the latest 1 day(s).
| Time | Temp. | Humidity | Pressure | Rain* | Wind** | Luminosity | Snow |
|---|---|---|---|---|---|---|---|
| 1778077515 | 23.33° C | 40% | 1007.7 hPa | 0 mm | - | - | - |
| 1778077255 | 23.89° C | 41% | 1008.1 hPa | 0 mm | - | - | - |
| 1778077020 | 23.89° C | 41% | 1007.9 hPa | 0 mm | - | - | - |
| 1778076773 | 22.78° C | 42% | 1007.8 hPa | 0 mm | - | - | - |
| 1778076205 | 23.33° C | 43% | 1007.9 hPa | 0 mm | - | - | - |
| 1778075920 | 23.89° C | 44% | 1007.9 hPa | 0 mm | - | - | - |
| 1778075675 | 23.33° C | 44% | 1008 hPa | 0 mm | - | - | - |
| 1778075415 | 23.33° C | 46% | 1007.9 hPa | 0 mm | - | - | - |
| 1778075120 | 23.33° C | 46% | 1008.1 hPa | 0 mm | - | - | - |
| 1778074840 | 22.78° C | 46% | 1008 hPa | 0 mm | - | - | - |
| 1778073220 | 23.33° C | 41% | 1008.1 hPa | 0 mm | - | - | - |
| 1778072695 | 23.89° C | 39% | 1008 hPa | 0 mm | - | - | - |
| 1778072420 | 23.89° C | 41% | 1008 hPa | 0 mm | - | - | - |
| 1778072135 | 22.78° C | 39% | 1008.2 hPa | 0 mm | - | - | - |
| 1778071870 | 23.33° C | 39% | 1008.2 hPa | 0 mm | - | - | - |
| 1778071600 | 23.33° C | 40% | 1008.1 hPa | 0 mm | - | - | - |
| 1778071055 | 22.78° C | 45% | 1008.2 hPa | 0 mm | - | - | - |
| 1778070760 | 22.78° C | 44% | 1008.5 hPa | 0 mm | - | - | - |
| 1778070520 | 22.22° C | 46% | 1008.3 hPa | 0 mm | - | - | - |
| 1778070025 | 22.78° C | 42% | 1008.2 hPa | 0 mm | - | - | - |
| 1778069485 | 22.22° C | 43% | 1008.6 hPa | 0 mm | - | - | - |
| 1778069230 | 22.22° C | 42% | 1008.6 hPa | 0 mm | - | - | - |
| 1778068960 | 22.22° C | 43% | 1008.7 hPa | 0 mm | - | - | - |
| 1778068455 | 22.22° C | 43% | 1008.6 hPa | 0 mm | - | - | - |
| 1778068185 | 21.67° C | 44% | 1008.7 hPa | 0 mm | - | - | - |
* Rain latest hour (hover to see other rain measurements)
** Current wind speed in m/s (hover to see current wind gust speed)